Location: Dimechaux
(50.1952°N, 4.0401°E)
Time: 01:51:47
(UTC+00:00)

Spot 4 Rocket - Pass Details

Date: 11 December 2025
Orbit: 769 x 773 km, 98.8° (Epoch: 10 April)

Event Time Altitude Azimuth Distance (km) Brightness Sun altitude
Rises 18:18:41 0° 172° (S) 3,229 7.2 -24.0°
Reaches altitude 10° 18:21:00 10° 175° (S) 2,307 6.5 -24.4°
Maximum altitude 18:26:03 65° 257° (WSW) 850 4.3 -25.2°
Drops below altitude 10° 18:31:09 10° 340° (NNW) 2,328 6.6 -26.0°
Sets 18:33:30 0° 343° (NNW) 3,260 7.4 -26.3°
